Klamath Falls, OR

12:51 AM PDT on April 28, 2017 (GMT -0700)
Klamath Falls International

Weather History for KLMT - June, 2013

Change the Weather History Date:

Thursday, June 27, 2013

  Actual Average Record
Temperature  
Mean Temperature 69 °F 62 °F  
Max Temperature 86 °F 78 °F 96 °F (2015)
Min Temperature 51 °F 45 °F 31 °F (1965)
Degree Days  
Heating Degree Days 0 4  
Month to date heating degree days 178 204  
Since 1 June heating degree days 178 204  
Since 1 July heating degree days 6635 6960  
Cooling Degree Days 4 1  
Month to date cooling degree days 22 5  
Year to date cooling degree days 22 6  
Since 1 June cooling degree days 22 5  
Growing Degree Days 18 (Base 50)    
Moisture  
Dew Point 51 °F    
Average Humidity 56    
Maximum Humidity 89    
Minimum Humidity 27    
Precipitation  
Precipitation 0.00 in 0.05 in 0.83 in (1933)
Month to date precipitation 1.16 0.90  
Year to date precipitation 4.55 8.69  
Sea Level Pressure  
Sea Level Pressure 30.09 in    
Wind  
Wind Speed 4 mph (SSW)    
Max Wind Speed 12 mph    
Max Gust Speed 14 mph    
Visibility 10 miles    
Events      
T = Trace of Precipitation, MM = Missing Value Source: NWS Daily Summary

Daily Weather History Graph

Daily Weather History Graph

Search for Another Location

Airport or City:

Trip Planner

Search our weather history database for the weather conditions in past years. The results will help you decide how hot, cold, wet, or windy it might be!

Date:

Astronomy

Jun. 27, 2013 Rise Set
Actual Time 5:32 AM PDT 8:47 PM PDT
Civil Twilight 4:58 AM PDT 9:21 PM PDT
Nautical Twilight 4:13 AM PDT 10:06 PM PDT
Astronomical Twilight 3:19 AM PDT 11:00 PM PDT
Moon 11:40 PM PDT (6/27) 10:45 AM PDT (6/27)
Length of Visible Light 16h 23m
Length of Day
15h 14m
Waning Gibbous, 75% of the Moon is Illuminated
Jun 27
Waning Gibbous
Jun 29
Last Quarter
Jul 8
New
Jul 15
First Quarter
Jul 22
Full

Hourly Weather History & Observations

Time (PDT) Temp. Dew Point Humidity Pressure Visibility Wind Dir Wind Speed Gust Speed Precip Events Conditions
12:53 AM 57.9 °F 50.0 °F 75% 30.05 in 10.0 mi SSE 6.9 mph - N/A   Clear
1:53 AM 57.0 °F 50.0 °F 77% 30.05 in 10.0 mi Calm Calm - N/A   Clear
2:53 AM 55.0 °F 48.9 °F 80% 30.05 in 10.0 mi SSE 5.8 mph - N/A   Clear
3:53 AM 54.0 °F 48.9 °F 83% 30.05 in 10.0 mi ENE 3.5 mph - N/A   Clear
4:53 AM 53.1 °F 48.9 °F 86% 30.06 in 10.0 mi Calm Calm - N/A   Clear
5:53 AM 51.1 °F 48.9 °F 92% 30.08 in 10.0 mi SSE 3.5 mph - N/A   Clear
6:53 AM 55.9 °F 51.1 °F 84% 30.08 in 10.0 mi Calm Calm - N/A   Clear
7:53 AM 63.0 °F 53.1 °F 70% 30.08 in 10.0 mi East 3.5 mph - N/A   Clear
8:53 AM 66.9 °F 53.1 °F 61% 30.10 in 10.0 mi SE 5.8 mph - N/A   Clear
9:53 AM 71.1 °F 52.0 °F 51% 30.10 in 10.0 mi Variable 6.9 mph - N/A   Clear
10:53 AM 73.0 °F 51.1 °F 46% 30.10 in 10.0 mi SSE 9.2 mph - N/A   Clear
11:53 AM 75.9 °F 48.9 °F 38% 30.11 in 10.0 mi Variable 5.8 mph - N/A   Clear
12:53 PM 79.0 °F 48.9 °F 35% 30.09 in 10.0 mi Variable 5.8 mph - N/A   Clear
1:53 PM 80.1 °F 48.0 °F 32% 30.09 in 10.0 mi SW 3.5 mph - N/A   Clear
2:53 PM 82.0 °F 46.0 °F 28% 30.09 in 10.0 mi Calm Calm - N/A   Clear
3:53 PM 84.9 °F 48.0 °F 28% 30.08 in 10.0 mi Calm Calm - N/A   Clear
4:53 PM 84.9 °F 46.9 °F 27% 30.08 in 10.0 mi SW 5.8 mph - N/A   Clear
5:53 PM 84.9 °F 46.9 °F 27% 30.08 in 10.0 mi Variable 3.5 mph - N/A   Clear
6:53 PM 84.0 °F 48.9 °F 29% 30.07 in 10.0 mi West 8.1 mph - N/A   Clear
7:53 PM 81.0 °F 51.1 °F 35% 30.08 in 10.0 mi NW 10.4 mph - N/A   Clear
8:53 PM 75.0 °F 55.9 °F 51% 30.10 in 10.0 mi WNW 8.1 mph - N/A   Clear
9:53 PM 70.0 °F 55.9 °F 61% 30.12 in 10.0 mi NNW 6.9 mph - N/A   Clear
10:53 PM 68.0 °F 55.9 °F 65% 30.13 in 10.0 mi NNW 3.5 mph - N/A   Clear
11:53 PM 63.0 °F 57.0 °F 81% 30.14 in 10.0 mi Calm Calm - N/A   Clear